• In Hungary
  • List of Countries
  • For 7 days
  • Water Temperature
  • Satellite Maps
  • Weather Map
  • News
  • Weather Widgets
  • user-avatar
    Login

    Hourly Weather Malanje

    Today, 20 November, Monday

    Time Temperature Precipitation Wind Pressure Humidity
    00:00 +18°C° 0.3 mm 0 mps 665 mmHg 92%
    01:00 +18°C° 0 mm 0 mps 665 mmHg 92%
    02:00 +18°C° 0 mm 0 mps 665 mmHg 93%
    03:00 +18°C° 0 mm 0 mps 665 mmHg 94%
    04:00 +17°C° 0 mm 0 mps 665 mmHg 95%
    05:00 +18°C° 0 mm 0 mps 665 mmHg 94%
    06:00 +18°C° 0 mm 0 mps 665 mmHg 93%
    07:00 +19°C° 0 mm 0 mps 666 mmHg 92%
    08:00 +21°C° 0 mm 0 mps 666 mmHg 84%
    09:00 +24°C° 0 mm 0 mps 667 mmHg 75%
    10:00 +26°C° 0 mm 0 mps 667 mmHg 66%
    11:00 +28°C° 0.3 mm 1 mps 667 mmHg 65%
    12:00 +29°C° 0.3 mm 1 mps 666 mmHg 65%
    13:00 +29°C° 0.3 mm 1 mps 666 mmHg 64%
    14:00 +28°C° 1.4 mm 1 mps 665 mmHg 70%
    15:00 +27°C° 1.4 mm 1 mps 665 mmHg 77%
    16:00 +26°C° 1.4 mm 1 mps 665 mmHg 84%
    17:00 +24°C° 0.8 mm 1 mps 665 mmHg 86%
    18:00 +23°C° 0.8 mm 1 mps 665 mmHg 89%
    19:00 +19°C° 0.8 mm 0 mps 665 mmHg 92%
    20:00 +19°C° 0.1 mm 0 mps 665 mmHg 92%
    21:00 +19°C° 0.1 mm 0 mps 665 mmHg 92%
    22:00 +18°C° 0.1 mm 0 mps 666 mmHg 92%
    23:00 +18°C° 0 mm 0 mps 665 mmHg 92%

    Tomorrow, 21 November, Tuesday

    Time Temperature Precipitation Wind Pressure Humidity
    00:00 +18°C° 0 mm 0 mps 665 mmHg 93%
    01:00 +18°C° 0 mm 0 mps 665 mmHg 93%
    02:00 +17°C° 0 mm 0 mps 664 mmHg 94%
    03:00 +17°C° 0 mm 0 mps 664 mmHg 94%
    04:00 +17°C° 0 mm 0 mps 664 mmHg 95%
    05:00 +18°C° 0 mm 0 mps 665 mmHg 94%
    06:00 +19°C° 0 mm 0 mps 665 mmHg 93%
    07:00 +19°C° 0 mm 0 mps 666 mmHg 92%
    08:00 +21°C° 0.6 mm 0 mps 666 mmHg 87%
    09:00 +23°C° 0.6 mm 0 mps 667 mmHg 83%
    10:00 +26°C° 0.6 mm 1 mps 667 mmHg 78%
    11:00 +26°C° 1.3 mm 1 mps 667 mmHg 78%
    12:00 +26°C° 1.3 mm 1 mps 666 mmHg 79%
    13:00 +26°C° 1.3 mm 1 mps 665 mmHg 79%
    14:00 +26°C° 1.1 mm 1 mps 665 mmHg 81%
    15:00 +25°C° 1.1 mm 1 mps 664 mmHg 83%
    16:00 +24°C° 1.1 mm 1 mps 663 mmHg 86%
    17:00 +23°C° 0.3 mm 1 mps 663 mmHg 89%
    18:00 +22°C° 0.3 mm 1 mps 664 mmHg 92%
    19:00 +21°C° 0.3 mm 1 mps 664 mmHg 95%
    20:00 +21°C° 0.1 mm 1 mps 664 mmHg 95%
    21:00 +20°C° 0.1 mm 1 mps 665 mmHg 95%
    22:00 +20°C° 0.1 mm 1 mps 665 mmHg 95%
    23:00 +19°C° 0 mm 1 mps 665 mmHg 95%

    Day after tomorrow, 22 November, Wednesday

    Time Temperature Precipitation Wind Pressure Humidity
    00:00 +19°C° 0 mm 1 mps 664 mmHg 95%
    01:00 +19°C° 0 mm 1 mps 664 mmHg 96%
    02:00 +19°C° 0 mm 1 mps 664 mmHg 96%
    03:00 +19°C° 0 mm 1 mps 663 mmHg 96%
    04:00 +18°C° 0 mm 1 mps 663 mmHg 97%
    05:00 +17°C° 0 mm 0 mps 664 mmHg 95%
    06:00 +18°C° 0 mm 0 mps 664 mmHg 92%
    07:00 +19°C° 0 mm 0 mps 665 mmHg 90%
    08:00 +22°C° 0 mm 0 mps 666 mmHg 80%
    09:00 +25°C° 0 mm 0 mps 666 mmHg 71%
    10:00 +29°C° 0 mm 1 mps 667 mmHg 61%
    11:00 +28°C° 0.1 mm 0 mps 666 mmHg 59%
    12:00 +28°C° 0.1 mm 0 mps 665 mmHg 57%
    13:00 +28°C° 0.1 mm 0 mps 665 mmHg 55%
    14:00 +29°C° 0.7 mm 1 mps 664 mmHg 63%
    15:00 +28°C° 0.7 mm 1 mps 663 mmHg 72%
    16:00 +26°C° 0.7 mm 1 mps 663 mmHg 80%
    17:00 +25°C° 0.6 mm 1 mps 663 mmHg 84%
    18:00 +23°C° 0.6 mm 1 mps 663 mmHg 88%
    19:00 +22°C° 0.6 mm 1 mps 664 mmHg 91%
    20:00 +21°C° 0.9 mm 1 mps 664 mmHg 92%
    21:00 +21°C° 0.9 mm 1 mps 665 mmHg 93%
    22:00 +20°C° 0.9 mm 1 mps 665 mmHg 95%
    23:00 +19°C° 1 mm 2 mps 665 mmHg 95%

    23 November, Thursday

    Time Temperature Precipitation Wind Pressure Humidity
    00:00 +19°C° 1 mm 2 mps 664 mmHg 96%
    01:00 +19°C° 1 mm 2 mps 664 mmHg 97%
    02:00 +19°C° 0.5 mm 2 mps 664 mmHg 97%
    03:00 +19°C° 0.5 mm 2 mps 663 mmHg 98%
    04:00 +19°C° 0.5 mm 2 mps 663 mmHg 98%
    05:00 +19°C° 0.1 mm 2 mps 664 mmHg 97%
    06:00 +19°C° 0.1 mm 2 mps 664 mmHg 97%
    07:00 +19°C° 0.1 mm 2 mps 665 mmHg 96%
    08:00 +22°C° 0.1 mm 1 mps 665 mmHg 92%
    09:00 +23°C° 0.1 mm 1 mps 665 mmHg 87%
    10:00 +24°C° 0.1 mm 1 mps 666 mmHg 82%
    11:00 +25°C° 0.6 mm 1 mps 665 mmHg 79%
    12:00 +26°C° 0.6 mm 1 mps 665 mmHg 76%
    13:00 +27°C° 0.6 mm 1 mps 664 mmHg 73%
    14:00 +26°C° 1.4 mm 1 mps 663 mmHg 79%
    15:00 +25°C° 1.4 mm 1 mps 663 mmHg 85%
    16:00 +24°C° 1.4 mm 1 mps 663 mmHg 91%
    17:00 +23°C° 1.3 mm 1 mps 663 mmHg 92%
    18:00 +22°C° 1.3 mm 1 mps 663 mmHg 94%
    19:00 +21°C° 1.3 mm 1 mps 664 mmHg 95%
    20:00 +21°C° 0.5 mm 1 mps 664 mmHg 95%
    21:00 +20°C° 0.5 mm 1 mps 665 mmHg 95%
    22:00 +20°C° 0.5 mm 1 mps 665 mmHg 95%
    23:00 +20°C° 0.2 mm 1 mps 665 mmHg 95%

    24 November, Friday

    Time Temperature Precipitation Wind Pressure Humidity
    00:00 +18°C° 0.2 mm 0 mps 664 mmHg 96%
    01:00 +17°C° 0.2 mm 0 mps 664 mmHg 96%
    02:00 +17°C° 0 mm 0 mps 664 mmHg 96%
    03:00 +17°C° 0 mm 0 mps 663 mmHg 97%
    04:00 +17°C° 0 mm 0 mps 663 mmHg 97%
    05:00 +17°C° 0 mm 0 mps 664 mmHg 96%
    06:00 +18°C° 0 mm 0 mps 665 mmHg 95%
    07:00 +19°C° 0 mm 0 mps 665 mmHg 94%
    08:00 +20°C° 0.4 mm 0 mps 665 mmHg 89%
    09:00 +24°C° 0.4 mm 1 mps 666 mmHg 85%
    10:00 +25°C° 0.4 mm 1 mps 666 mmHg 81%
    11:00 +25°C° 0.8 mm 1 mps 665 mmHg 79%
    12:00 +26°C° 0.8 mm 2 mps 664 mmHg 77%
    13:00 +26°C° 0.8 mm 2 mps 664 mmHg 75%
    14:00 +25°C° 1 mm 2 mps 664 mmHg 79%
    15:00 +25°C° 1 mm 2 mps 663 mmHg 83%
    16:00 +24°C° 1 mm 2 mps 663 mmHg 88%
    17:00 +23°C° 0.8 mm 1 mps 663 mmHg 90%
    18:00 +22°C° 0.8 mm 1 mps 664 mmHg 93%
    19:00 +21°C° 0.8 mm 1 mps 664 mmHg 95%
    20:00 +20°C° 0.9 mm 1 mps 664 mmHg 96%
    21:00 +20°C° 0.9 mm 1 mps 665 mmHg 96%
    22:00 +20°C° 0.9 mm 1 mps 665 mmHg 97%
    23:00 +20°C° 1.3 mm 1 mps 665 mmHg 97%

    25 November, Saturday

    Time Temperature Precipitation Wind Pressure Humidity
    00:00 +20°C° 1.3 mm 1 mps 664 mmHg 98%
    01:00 +19°C° 1.3 mm 2 mps 664 mmHg 98%
    02:00 +19°C° 0.8 mm 2 mps 664 mmHg 98%
    03:00 +19°C° 0.8 mm 2 mps 664 mmHg 98%
    04:00 +19°C° 0.8 mm 2 mps 664 mmHg 98%
    05:00 +19°C° 0.2 mm 2 mps 664 mmHg 98%
    06:00 +19°C° 0.2 mm 2 mps 665 mmHg 97%
    07:00 +20°C° 0.2 mm 1 mps 665 mmHg 97%
    08:00 +21°C° 0.1 mm 1 mps 665 mmHg 91%
    09:00 +21°C° 0.1 mm 2 mps 666 mmHg 86%
    10:00 +23°C° 0.1 mm 2 mps 666 mmHg 80%
    11:00 +24°C° 0.1 mm 2 mps 665 mmHg 76%
    12:00 +25°C° 0.1 mm 2 mps 665 mmHg 73%
    13:00 +26°C° 0.1 mm 2 mps 664 mmHg 69%
    14:00 +25°C° 0.1 mm 2 mps 663 mmHg 70%
    15:00 +25°C° 0.1 mm 2 mps 663 mmHg 71%
    16:00 +25°C° 0.1 mm 2 mps 663 mmHg 73%
    17:00 +24°C° 0.1 mm 2 mps 663 mmHg 79%
    18:00 +21°C° 0.1 mm 2 mps 663 mmHg 85%
    19:00 +20°C° 0.1 mm 1 mps 663 mmHg 91%
    20:00 +20°C° 0 mm 1 mps 664 mmHg 93%
    21:00 +20°C° 0 mm 1 mps 664 mmHg 94%
    22:00 +19°C° 0 mm 1 mps 665 mmHg 96%
    23:00 +19°C° 0 mm 1 mps 664 mmHg 96%
    Show more